Change the Weather History Date:

Tuesday, April 22, 2014

  Actual Average Record
Temperature  
Mean Temperature 74 °F -  
Max Temperature 86 °F 74 °F 91 °F (2006)
Min Temperature 61 °F 46 °F 35 °F (2007)
Cooling Degree Days 8    
Growing Degree Days 24 (Base 50)    
Moisture  
Dew Point 31 °F    
Average Humidity 23    
Maximum Humidity 49    
Minimum Humidity 11    
Precipitation  
Precipitation 0.00 in - - ()
Sea Level Pressure  
Sea Level Pressure 30.01 in    
Wind  
Wind Speed 9 mph (SSE)    
Max Wind Speed 22 mph    
Max Gust Speed 52 mph    
Visibility 10 miles    
Events      
Averages and records for this station are not official NWS values.
T = Trace of Precipitation, MM = Missing Value Source: NWS Daily Summary

Daily Weather History Graph

Daily Weather History Graph

Search for Another Location

Airport or City:

Trip Planner

Search our weather history database for the weather conditions in past years. The results will help you decide how hot, cold, wet, or windy it might be!

Date:

Astronomy

Apr. 22, 2014 Rise Set
Actual Time 6:30 AM MDT 7:42 PM MDT
Civil Twilight 6:04 AM MDT 8:07 PM MDT
Nautical Twilight 5:34 AM MDT 8:38 PM MDT
Astronomical Twilight 5:03 AM MDT 9:09 PM MDT
Moon 1:57 AM MDT (4/22) 1:09 PM MDT (4/22)
Length of Visible Light 14h 02m
Length of Day
13h 11m
Last Quarter, 45% of the Moon is Illuminated
Apr 22
Last Quarter
Apr 29
New
May 6
First Quarter
May 14
Full
May 21
Last Quarter

Hourly Weather History & Observations

Time (MDT) Temp. Dew Point Humidity Pressure Visibility Wind Dir Wind Speed Gust Speed Precip Events Conditions
12:15 AM 64.2 °F 25.0 °F 23% 30.12 in 10.0 mi SSE 5.8 mph - N/A   Clear
12:35 AM 66.2 °F 25.0 °F 21% 30.12 in 10.0 mi SSE 5.8 mph - N/A   Clear
12:55 AM 66.2 °F 27.5 °F 23% 30.11 in 10.0 mi SSE 5.8 mph - N/A   Clear
1:15 AM 65.5 °F 30.2 °F 27% 30.11 in 10.0 mi SSE 5.8 mph - N/A   Clear
1:35 AM 65.8 °F 32.0 °F 28% 30.11 in 10.0 mi SE 5.8 mph - N/A   Clear
1:55 AM 64.9 °F 32.0 °F 29% 30.11 in 10.0 mi SE 4.6 mph - N/A   Clear
2:15 AM 64.9 °F 32.0 °F 29% 30.11 in 10.0 mi SE 5.8 mph - N/A   Clear
2:35 AM 64.4 °F 32.0 °F 30% 30.11 in 10.0 mi SE 5.8 mph - N/A   Clear
2:55 AM 63.3 °F 32.0 °F 31% 30.10 in 10.0 mi SE 5.8 mph - N/A   Clear
3:15 AM 63.1 °F 31.8 °F 31% 30.10 in 10.0 mi SE 5.8 mph - N/A   Clear
3:35 AM 62.2 °F 31.1 °F 31% 30.11 in 10.0 mi SE 6.9 mph - N/A   Clear
3:55 AM 62.6 °F 31.8 °F 32% 30.11 in 10.0 mi SSE 6.9 mph - N/A   Clear
4:15 AM 63.3 °F 32.2 °F 31% 30.11 in 10.0 mi SSE 5.8 mph - N/A   Clear
4:35 AM 63.9 °F 33.1 °F 32% 30.11 in 10.0 mi SE 8.1 mph - N/A   Clear
4:55 AM 63.5 °F 33.4 °F 33% 30.11 in 10.0 mi SE 6.9 mph - N/A   Clear
5:15 AM 63.1 °F 34.5 °F 34% 30.11 in 10.0 mi ESE 8.1 mph - N/A   Clear
5:35 AM 63.3 °F 36.9 °F 37% 30.11 in 10.0 mi ESE 6.9 mph - N/A   Clear
5:55 AM 61.9 °F 38.5 °F 42% 30.11 in 10.0 mi SSE 4.6 mph - N/A   Clear
6:15 AM 61.7 °F 40.1 °F 45% 30.12 in 10.0 mi SE 6.9 mph - N/A   Clear
6:35 AM 61.7 °F 41.4 °F 47% 30.12 in 10.0 mi SE 8.1 mph - N/A   Clear
6:55 AM 61.5 °F 42.3 °F 49% 30.12 in 10.0 mi SE 9.2 mph - N/A   Clear
7:15 AM 63.3 °F 43.5 °F 48% 30.12 in 10.0 mi SE 10.4 mph - N/A   Clear
7:35 AM 65.1 °F 44.1 °F 46% 30.13 in 10.0 mi SE 10.4 mph - N/A   Clear
7:55 AM 66.6 °F 43.9 °F 44% 30.13 in 10.0 mi SE 10.4 mph - N/A   Clear
8:15 AM 67.6 °F 43.5 °F 42% 30.13 in 10.0 mi SE 13.8 mph - N/A   Clear
8:35 AM 69.1 °F 43.7 °F 40% 30.13 in 10.0 mi SE 11.5 mph - N/A   Clear
8:55 AM 70.3 °F 42.8 °F 37% 30.13 in 10.0 mi SE 13.8 mph - N/A   Clear
9:15 AM 71.2 °F 42.1 °F 35% 30.13 in 10.0 mi SE 12.7 mph 18.4 mph N/A   Clear
9:35 AM 72.0 °F 41.9 °F 34% 30.13 in 10.0 mi SE 12.7 mph - N/A   Clear
9:55 AM 74.5 °F 41.0 °F 30% 30.12 in 10.0 mi SE 12.7 mph 19.6 mph N/A   Clear
10:15 AM 74.1 °F 41.2 °F 31% 30.12 in 10.0 mi SSE 13.8 mph 18.4 mph N/A   Clear
10:35 AM 76.3 °F 41.2 °F 28% 30.12 in 10.0 mi SE 12.7 mph 19.6 mph N/A   Clear
10:55 AM 77.7 °F 39.6 °F 25% 30.11 in 10.0 mi SE 18.4 mph 21.9 mph N/A   Clear
11:15 AM 79.2 °F 37.4 °F 22% 30.11 in 10.0 mi SSE 21.9 mph 26.5 mph N/A   Clear
11:35 AM 80.2 °F 36.0 °F 20% 30.10 in 10.0 mi South 17.3 mph 26.5 mph N/A   Clear
11:55 AM 81.1 °F 36.3 °F 20% 30.09 in 10.0 mi SSE 16.1 mph 26.5 mph N/A   Clear
12:15 PM 81.7 °F 35.2 °F 19% 30.08 in 10.0 mi South 17.3 mph 25.3 mph N/A   Clear
12:35 PM 82.8 °F 36.0 °F 19% 30.06 in 10.0 mi SSE 16.1 mph 20.7 mph N/A   Clear
12:55 PM 83.7 °F 35.1 °F 18% 30.04 in 10.0 mi SE 15.0 mph 23.0 mph N/A   Clear
1:15 PM 84.7 °F 32.9 °F 16% 30.03 in 10.0 mi SSE 13.8 mph 20.7 mph N/A   Clear
1:35 PM 85.8 °F 31.1 °F 14% 30.02 in 10.0 mi South 11.5 mph 23.0 mph N/A   Scattered Clouds
1:55 PM 83.8 °F 31.8 °F 15% 30.00 in 10.0 mi SSE 16.1 mph 25.3 mph N/A   Scattered Clouds
2:15 PM 85.5 °F 31.6 °F 14% 29.99 in 10.0 mi SE 17.3 mph 24.2 mph N/A   Scattered Clouds
2:35 PM 85.8 °F 30.0 °F 13% 29.98 in 10.0 mi SSE 15.0 mph 25.3 mph N/A   Scattered Clouds
2:55 PM 84.9 °F 28.8 °F 13% 29.96 in 10.0 mi South 11.5 mph 25.3 mph N/A   Scattered Clouds
3:15 PM 84.6 °F 29.3 °F 14% 29.95 in 10.0 mi SSE 12.7 mph 25.3 mph N/A   Clear
3:35 PM 86.2 °F 28.8 °F 13% 29.94 in 10.0 mi SSE 15.0 mph 25.3 mph N/A   Clear
3:55 PM 86.5 °F 26.6 °F 11% 29.92 in 10.0 mi South 15.0 mph 21.9 mph N/A   Clear
4:15 PM 85.6 °F 25.5 °F 11% 29.91 in 10.0 mi South 13.8 mph 21.9 mph N/A   Clear
4:35 PM 85.3 °F 25.3 °F 11% 29.90 in 10.0 mi South 16.1 mph 28.8 mph N/A   Clear
4:55 PM 85.1 °F 25.2 °F 11% 29.89 in 10.0 mi SSW 16.1 mph 19.6 mph N/A   Clear
5:15 PM 85.8 °F 25.5 °F 11% 29.88 in 10.0 mi South 13.8 mph 25.3 mph N/A   Clear
5:35 PM 84.6 °F 25.0 °F 11% 29.87 in 10.0 mi South 17.3 mph 23.0 mph N/A   Clear
5:55 PM 84.9 °F 25.2 °F 11% 29.86 in 10.0 mi South 13.8 mph - N/A   Clear
6:15 PM 84.2 °F 26.1 °F 12% 29.86 in 10.0 mi South 10.4 mph 19.6 mph N/A   Clear
6:35 PM 85.1 °F 25.2 °F 11% 29.85 in 10.0 mi South 13.8 mph 26.5 mph N/A   Clear
6:55 PM 84.4 °F 24.8 °F 11% 29.85 in 10.0 mi South 17.3 mph 21.9 mph N/A   Clear
7:15 PM 83.7 °F 23.7 °F 11% 29.84 in 10.0 mi SSW 11.5 mph - N/A   Clear
7:35 PM 82.8 °F 23.7 °F 11% 29.85 in 10.0 mi SW 11.5 mph - N/A   Clear
7:55 PM 82.0 °F 23.7 °F 12% 29.86 in 10.0 mi SW 10.4 mph - N/A   Scattered Clouds
8:15 PM 81.1 °F 23.9 °F 12% 29.86 in 10.0 mi South 16.1 mph 19.6 mph N/A   Scattered Clouds
8:35 PM 81.7 °F 24.4 °F 12% 29.87 in 10.0 mi SW 11.5 mph 25.3 mph N/A   Scattered Clouds
8:55 PM 81.3 °F 25.2 °F 13% 29.87 in 10.0 mi SSE 4.6 mph 51.8 mph N/A   Scattered Clouds
9:15 PM 79.7 °F 25.3 °F 14% 29.87 in 10.0 mi SSW 5.8 mph - N/A   Scattered Clouds
9:35 PM 80.2 °F 23.5 °F 12% 29.88 in 10.0 mi West 13.8 mph 27.6 mph N/A   Clear
9:55 PM 79.7 °F 20.8 °F 11% 29.88 in 10.0 mi West 11.5 mph - N/A   Clear
10:15 PM 78.4 °F 20.3 °F 11% 29.89 in 10.0 mi West 8.1 mph - N/A   Clear
10:35 PM 75.6 °F 20.1 °F 13% 29.89 in 10.0 mi West 6.9 mph - N/A   Clear
10:55 PM 73.8 °F 20.1 °F 13% 29.88 in 10.0 mi West 9.2 mph - N/A   Clear
11:15 PM 73.4 °F 20.8 °F 14% 29.88 in 10.0 mi WSW 10.4 mph - N/A   Clear
11:35 PM 71.1 °F 20.3 °F 15% 29.88 in 10.0 mi WSW 9.2 mph - N/A   Clear
11:55 PM 70.3 °F 20.3 °F 15% 29.88 in 10.0 mi WSW 9.2 mph - N/A   Clear